AirNav   Duncan Aviation - Near you to keep you flying
 
 1341 users online  

7NC1 Stag Air Park
Burgaw, North Carolina, USA

GOING TO BURGAW?


FAA INFORMATION EFFECTIVE 19 MAY 2022

Location

FAA Identifier: 7NC1
Lat/Long: 34-31-40.6010N 077-51-00.9410W
34-31.676683N 077-51.015683W
34.5279447,-77.8502614
(estimated)
Elevation: 23 ft. / 7.0 m (surveyed)
Variation: 07W (1985)
From city: 2 miles E of BURGAW, NC
Time zone: UTC -4 (UTC -5 during Standard Time)
Zip code: 28425

Airport Operations

Airport use: Private use. Permission required prior to landing
Activation date: 04/1987
Control tower: no
ARTCC: WASHINGTON CENTER
FSS: RALEIGH FLIGHT SERVICE STATION
Attendance: UNATNDD
Wind indicator: yes
Segmented circle: no

Airport Communications

WX ASOS at ILM (16 nm S): PHONE 910-254-5254

Nearby radio navigation aids

VOR radial/distance  VOR name  Freq  Var
ILMr013/10.6WILMINGTON VORTAC117.0007W

 
NDB name  Hdg/Dist  Freq  Var  ID
WILZE001/11.620510WGM --. --
DIXON271/19.819808WDIW -.. .. .--
CLINTON146/36.841209WCTZ -.-. - --..

Airport Services

Fuel available: 100LL

Runway Information

Runway 11/29

Dimensions: 4000 x 125 ft. / 1219 x 38 m
Surface: turf
RUNWAY 11  RUNWAY 29
Traffic pattern: leftleft
Obstructions: treesnone

Airport Ownership and Management from official FAA records

Ownership: Privately-owned
Owner: STAG AIR PARK INC
91 AVIATOR LANE
BURGAW, NC 28425
Phone 910-686-9612
Manager: MICHAEL L. CORN
245 CREEKSIDE EAST DRIVE
WILMINGTON, NC 28411
Phone 910-686-9612

Airport Operational Statistics

Aircraft based on the field: 17
Single engine airplanes: 13
Multi engine airplanes: 1
Helicopters: 3
    

Additional Remarks

FOR CD CTC WASHINGTON ARTCC AT 703-771-3587.

Instrument Procedures

There are no published instrument procedures at 7NC1.

Some nearby airports with instrument procedures:

KACZ - Henderson Field Airport (14 nm NW)
KILM - Wilmington International Airport (16 nm S)
KOAJ - Albert J Ellis Airport (22 nm NE)
KNCA - New River Marine Corps Air Station (H) (McCutcheon Field) (23 nm NE)
KDPL - Duplin County Airport (29 nm N)
 
Loc | Ops | Rwys | IFR | FBO | Links
Com | Nav | Svcs | Stats | Notes
Area around 7NC1 (Stag Air Park)
 
Road maps at: MapQuest Bing Google
 
Aerial photo
WARNING: Photo may not be current or correct
Aerial photo of 7NC1 (Stag Air Park)
Photo taken 19-Jun-2007
looking down runway 29

Do you have a better or more recent aerial photo of Stag Air Park that you would like to share? If so, please send us your photo.

 
Sectional chart

 
Airport distance calculator
Flying to Stag Air Park? Find the distance to fly.

From to 7NC1

Sunrise and sunset
Times for 20-May-2022
 Local
(UTC-4)
 Zulu
(UTC)
Morning civil twilight05:3809:38
Sunrise06:0610:06
Sunset20:0900:09
Evening civil twilight20:3800:38

Current date and time
Zulu (UTC)  20-May-2022 21:27:12
Local (UTC-4)  20-May-2022 17:27:12
 
METAR
KILM 
16nm S 
202053Z 20012KT 170V240 10SM CLR 33/19 A2999 RMK AO2 SLP153 T03330194 58002
KOAJ 
21nm NE 
202056Z 21010KT 10SM CLR 34/19 A2997
KNCA 
23nm NE 
202056Z 19008KT 10SM SCT150 32/22 A2997 RMK AO2 SLP150 T03170222 58002
KDPL 
29nm N 
202115Z 7SM CLR 35/15 A2996 RMK AO2
TAF
KILM 
16nm S 
201727Z 2018/2118 24013G19KT P6SM SCT250 FM202000 21013KT P6SM FEW250 FM210300 21008KT P6SM FEW150 FM211600 20010G15KT P6SM BKN200
NOTAMs
Click for the latest NOTAMs
NOTAMs are issued by the DoD/FAA and will open in a separate window not controlled by AirNav.

 

 
 

FBO, Fuel Providers, and Aircraft Ground Support

  
 Business Name 
 
 Contact 
 
 Services / Description 
 
Fuel Prices
 
Comments
  
Stag Air Park 910-686-9612 Airport management, Aviation fuel, Aircraft parking (ramp or tiedown), Organization with aviation interests, Restrooms

More info about Stag Air Park
independent
100LL
SS $5.49 
 Updated 26-Apr-2022
 
   write
SS=Self service
Update Fuel Prices
 

Would you like to see your business listed on this page?

 If your business provides an interesting product or service to pilots, flight crews, aircraft, or users of the Stag Air Park, you should consider listing it here.  To start the listing process, click on the button below
 
Add a business
 

Other Pages about Stag Air Park

www.stagairpark.com
 
Update a link
 
Copyright © AirNav, LLC. All rights reserved. Privacy Policy  Contact